Showing default

OPS 9327 (IDSCS 14), 2654

Orbit data source: Space-Track

OPS 9327 (IDSCS 14), 2654 is a payload satellite owned by USAF SSD (US) in GEO that was launched on Wed, 18 Jan 1967 UTC via a TITAN IIIC launch vehicle from the Air Force Eastern Test Range (AFETR). Payload-class satellites include a variety of spacecraft equipped with specific instruments for various scientific and technological missions. These include communications satellites like Starlink; space stations such as the ISS; scientific satellites like the Hubble; Earth observation satellites from companies like Planet Labs, Umbra, and HawkEye 360; GPS; miniature CubeSats for education and research; and military/defense satellites.

Loading next visibility...
Identifier
2654, 1967-003G
Orbit
GEO
Country
Flag of USUS
Related business
Manufacturer
Philco-Ford WDL
Mission
Non-operational spacecraft
Bus & Motor
IDCSP, Unknown motor
Mass
45 kg wet, 45 kg dry
Launch date (UTC)
1967-01-18 (59 years ago)
Launch vehicle
TITAN IIIC
Launch site
Air Force Eastern Test Range (AFETR)
Object type
Payload
Rocket body
Debris
Shape & HBR
Unknown
Radar Cross Section
Medium (>0.1 m² and <1 m²)

Expand to show TLE details & history
Last TLE update: 2 days ago

TLE from 2 days ago
0 OPS 9327 (IDSCS 14)
1 02654U 67003G   25307.66390615 -.00000072  00000-0  00000-0 0  9996
2 02654   7.7219  49.1736 0055843  45.1001 312.2682  1.07511090137044
Epoch: 2025-11-03T15:56Z
TLE epoch observation values (Epoch: 2025-11-03T15:56:01.491Z)
Latitude
-0.40802°
Longitude
123.89439°
Altitude
33,720.645 km
Speed
3.159 km/s
True Right ascension
03h 04m 15s
True Declination
0° 24' 27"
Sunlit
Object was in daylight at epoch
Visualization orbit readout
Latitude
Unknown
Longitude
Unknown
Altitude
Unknown
Speed
Unknown
Apparent Right ascension
Unknown
Apparent Declination
Unknown
Sunlit
N/A
Visualization observer readout
Local Sidereal Time
15:39:35
Azimuth
Unknown
Elevation
Unknown
Doppler factor
Unknown
Orbital elements
Apogee altitude
34,097.768 km
Perigee altitude
33,648.219 km
Semi-major axis
40,251.131 km
Eccentricity
0.00558
Inclination
7.7219°
RAAN
49.1736°
Arg. of periapsis
45.1001°
True anomaly
311.79243°
Mean anomaly
312.2682°
Eccentric anomaly
312.03054°
Mean motion
0.26877 °/min
Orbital period
1,339.45 mins
BSTAR
0
Loading maneuver chart data...
Computing Atmospheric mass density...
Loading historical data...
Loading historical data...
Loading historical data...
Loading historical data...
Loading historical data...
Loading historical data...
Loading historical data...

Documentation

Showing up to 5 results
|